Home > Weather > Alexandria > Past weeks

Flag for Egypt Past Weather in Alexandria, Egypt — Yesterday and Last 2 Weeks

Now
81 °F

Passing clouds.


Feels Like: 82 °F
Forecast: 82 / 86 °F
Wind: 5 mph from North

Location: Alexandria / Nouzha

Current Time: Aug 30, 2016 at 7:22:34 AM

Latest Report: Aug 30, 2016 at 4:00 AM


Visibility: N/A

Pressure: 29.86 "Hg

Humidity: 58%

Dew Point: 64 °F

Location of AlexandriaLocation

Past Weather in Alexandria — Graph

°F

Alexandria Temperature Yesterday

Maximum temperature yesterday: 88 °F (at 12:00 PM)
Minimum temperature yesterday: 73 °F (at 5:00 AM)
Average temperature yesterday: 81 °F

High & Low Weather Summary for the Past Weeks

 TemperatureHumidityPressure
High91 °F (Aug 26, 1:00 PM)89% (Aug 27, 4:00 AM)29.98 "Hg (Aug 27, 4:00 AM)
Low68 °F (Aug 16, 2:00 AM)33% (Aug 16, 5:00 PM)29.74 "Hg (Aug 17, 4:00 AM)
Average82 °F62%29.84 "Hg
* Reported Aug 15 4:00 AM — Aug 30 4:00 AM, Alexandria, Weather by CustomWeather, © 2016

Note: Actual official high and low records may vary slightly from our data, if they occured in-between our weather recording intervals... More about our weather records

Advertising

Alexandria Weather History for the Previous 24 Hours

Scroll right to see more
 ConditionsComfort  
Time TempWeatherWind HumidityBarometerVisibility
4:00 AM
Tue, Aug 30
81 °FPassing clouds.5 mph58%29.86 "HgN/A
3:00 AM81 °FPassing clouds.5 mph58%29.86 "HgN/A
2:00 AM81 °FPassing clouds.5 mph58%29.86 "HgN/A
1:00 AM79 °FPassing clouds.7 mph61%29.89 "HgN/A
12:00 AM81 °FPassing clouds.7 mph58%29.89 "HgN/A
11:00 PM
Mon, Aug 29
81 °FPassing clouds.6 mph54%29.89 "HgN/A
9:00 PM81 °FPassing clouds.6 mph54%29.92 "HgN/A
8:00 PM81 °FPassing clouds.8 mph58%29.89 "HgN/A
7:00 PM82 °FPassing clouds.8 mph55%29.89 "HgN/A
6:00 PM84 °FPassing clouds.9 mph51%29.89 "HgN/A
5:00 PM84 °FPassing clouds.10 mph55%29.89 "HgN/A
4:00 PM86 °FPassing clouds.12 mph49%29.89 "HgN/A
3:00 PM86 °FPassing clouds.14 mph52%29.89 "HgN/A
1:00 PM86 °FScattered clouds.12 mph52%29.89 "HgN/A
12:00 PM88 °FScattered clouds.14 mph49%29.92 "HgN/A
11:00 AM86 °FScattered clouds.8 mph52%29.92 "HgN/A
10:00 AM84 °FScattered clouds.5 mph55%29.92 "HgN/A
9:00 AM82 °FScattered clouds.6 mph58%29.92 "HgN/A
8:00 AM81 °FScattered clouds.3 mph66%29.92 "HgN/A
7:00 AM75 °FScattered clouds.5 mph78%29.89 "HgN/A
Weather by CustomWeather, © 2016

See weather overviewHow to use our weather pages